Simultaneous Nadir Overpasses (SNOs) Predictions

Prediction of SNOs between LANDSAT-8 and METOP-B Satellite Orbit:

Table of predicted SNOs for the next 14.0 days since TLE Epoch: 6/1/2024
Index Date (LANDSAT-8) Time (LANDSAT-8) Lat,Lon (LANDSAT-8) SZA (LANDSAT-8 ) Date (METOP-B) Time (METOP-B) Lat,Lon (METOP-B) SZA (METOP-B ) Distance(km) Time Diff (sec)
1 06/01/2024 13:34:55 81.35, 20.13 61.77 06/01/2024 13:34:00 81.36, 20.31 61.76 3.02 55
2 06/01/2024 14:24:21 -81.37,-171.92 118.20 06/01/2024 14:24:40 -81.36,-172.06 118.21 2.38 19
3 06/04/2024 09:09:12 81.35, 86.48 61.40 06/04/2024 09:08:14 81.35, 86.57 61.39 1.64 58
4 06/04/2024 09:58:38 -81.36,-105.54 118.56 06/04/2024 09:58:53 -81.37,-105.36 118.53 2.94 15
5 06/07/2024 04:43:27 81.36, 153.09 61.13 06/07/2024 04:42:26 81.36, 153.14 61.11 0.81 61
6 06/07/2024 05:32:53 -81.37, -38.90 118.83 06/07/2024 05:33:05 -81.37, -38.75 118.81 2.55 12
7 06/10/2024 00:17:43 81.36,-140.43 60.88 06/10/2024 00:16:39 81.36,-140.37 60.86 0.92 64
8 06/10/2024 01:07:10 -81.36, 27.22 119.12 06/10/2024 01:07:19 -81.37, 27.38 119.10 2.82 9
9 06/12/2024 19:51:59 81.35, -74.08 60.67 06/12/2024 19:50:52 81.36, -73.97 60.66 1.86 67



Historial Predications of SNOs between LANDSAT-8 and METOP-B
